АЭРОДРОМУУД

ICAO:
ZMUB
Нэр:
УЛААНБААТАР / БУЯНТ-УХАА
Ахц:
475033N 1064603E
261452 ZMUBYNYX
(A0862/21 NOTAMN
Q) ZMUB/QGAAU/I /NBO/A /000/999/4750N10646E005
A) ZMUB B) 2110281037 C) 2110281116
D) 1037-1055 1108-1116
E) GPS RAIM NOT AVBL FOR FLT PROC.)
- 15 hours ago -

260852 ZMUBYNYX
(A0860/21 NOTAMN
Q) ZMUB/QMRLC/IV/NBO/A /000/999/4750N10646E005
A) ZMUB B) 2110270000 C) 2110270900
E) RWY 15/33 CLSD.)
- 21 hours ago -

010215 ZMUBYNYX
(C0272/21 NOTAMR C0271/21
Q) ZMUB/QKKKK/K /K /K /000/999/4752N10350E999
A) ZMUB B) 2110010215 C) 2111010700 EST
E) CHECKLIST YEAR=2021 0182 0183 0194 0205 0233 0259 0269 0270 LATEST PUBLICATIONS: AIRAC AIP SUP : 01/21 WEF 12 AUG 2021 AIP SUP : 01/21 PUBLICATION DATE 29 JUL 2021 AIRAC AIP AMDT: 06/21 WEF 04 NOV 2021 AIP AMDT : 06/21 PUBLICATION DATE 26 AUG 2021 AIC(SERIES C) : 01/21 PUBLICATION DATE 18 JAN 2021 AIP DATA SET : AIPZM-AMDT06-21 PUB 26 AUG 2021 OBST DATA SET : O-AREA1ZM200618 WEF 18 JUN 2020 O-AREA2ZMCK200618 WEF 18 JUN 2020 O-AREA2ZMUB200730 WEF 10 SEP 2020 O-AREA3ZMCK200618 WEF 18 JUN 2020 O-AREA3ZMUB200618 WEF 18 JUN 2020. TERRAIN DATA SET : T-AREA1ZM200618 WEF 18 JUN 2020 T-AREA2ZMCK200618 WEF 18 JUN 2020 T-AREA2ZMUB200618 WEF 18 JUN 2020 T-AREA3ZMCK200618 WEF 18 JUN 2020 T-AREA3ZMUB200618 WEF 18 JUN 2020. AD MAPPING DATA SET : AMDBZMCK200618 WEF 18 JUN 2020 AMDBZMUB200618 WEF 18 JUN 2020 AMDBZMDZ200618 WEF 18 JUN 2020 IFP DATA SET : IFPZM21 WEF 04 JAN 2021 AIP SUP CHECKLIST: AIP SUP: 01/20, 07/20, 08/20, 01/21 AIRAC AIP SUP: 01/21 AIC CHECKLIST: AIC (SERIES C): 02/08, 02/20, 01/21. )
- 4 weeks ago -

010200 ZMUBYNYX
(A0771/21 NOTAMR A0530/21
Q) ZMUB/QKKKK/K /K /K /000/999/4752N10350E999
A) ZMUB B) 2110010200 C) 2111010700 EST
E) CHECKLIST YEAR=2021 0293 0490 0743 0744 0745 0753 0755 0757 0758 0759 0760 0761 0762 0763 0764 0765 0766 0767 0768 0769 0770 LATEST PUBLICATIONS: AIRAC AIP SUP : 01/21 WEF 12 AUG 2021 AIP SUP : 01/21 PUBLICATION DATE 29 JUL 2021 AIRAC AIP AMDT: 06/21 WEF 04 NOV 2021 AIP AMDT : 06/21 PUBLICATION DATE 26 AUG 2021 AIC(SERIES A) : 03/21 PUBLICATION DATE 16 APR 2021 AIP DATA SET : AIPZM-AMDT06-21 PUB 26 AUG 2021 OBST DATA SET : O-AREA1ZM200618 WEF 18 JUN 2020 O-AREA2ZMCK200618 WEF 18 JUN 2020 O-AREA2ZMUB200730 WEF 10 SEP 2020 O-AREA3ZMCK200618 WEF 18 JUN 2020 O-AREA3ZMUB200618 WEF 18 JUN 2020. TERRAIN DATA SET : T-AREA1ZM200618 WEF 18 JUN 2020 T-AREA2ZMCK200618 WEF 18 JUN 2020 T-AREA2ZMUB200618 WEF 18 JUN 2020 T-AREA3ZMCK200618 WEF 18 JUN 2020 T-AREA3ZMUB200618 WEF 18 JUN 2020. AD MAPPING DATA SET : AMDBZMCK200618 WEF 18 JUN 2020 AMDBZMUB200618 WEF 18 JUN 2020 AMDBZMDZ200618 WEF 18 JUN 2020 IFP DATA SET : IFPZM21 WEF 04 JAN 2021 AIP SUP CHECKLIST: AIP SUP: 01/20, 07/20, 08/20, 01/21 AIRAC AIP SUP: 01/21 AIC CHECKLIST: AIC (SERIES A): 04/17, 03/20, 06/20, 01/21, 02/21, 03/21. )
- 4 weeks ago -

301045 ZMUBYNYX
(A0766/21 NOTAMN
Q) ZMUB/QFAHX/IV/NBO/A /000/999/4751N10644E002
A) ZMUB B) 2109302300 C) 2110311230
D) DAILY 2300-0230 1000-1230
E) AD BIRD CONCENTRATION WI 2KM RADIUS CENTRED ON 475155N1064403E
F) GND G) 250M AGL)
- 4 weeks ago -

291342 ZMUBYNYX
(A0753/21 NOTAMR A0528/21
Q) ZMUB/QFALT/IV/NBO/A /000/999/4750N10646E005
A) ZMUB B) 2109291339 C) 2110310000
E) AD AVBL FOR EMERGENCY LANDING.)
- 4 weeks ago -

METAR
METAR ZMUB 270600Z VRB02MPS CAVOK 12/M08 Q1018 NOSIG RMK QFE655.9 23=
- moments ago -

TAF
TAF ZMUB 270451Z 2706/2715 VRB02MPS CAVOK=
- 1 hour ago -

TAF ZMUB 270438Z 2706/2812 VRB02MPS CAVOK TX13/2707Z TNM11/2722Z=
- 1 hour ago -

TAF ZMUB 270152Z 2703/2712 VRB02MPS CAVOK=
- 4 hours ago -

TAF ZMUB 262300Z 2700/2709 VRB02MPS CAVOK BECMG 2703/2705 16005MPS=
- 7 hours ago -

TAF ZMUB 262230Z 2700/2806 VRB02MPS CAVOK TX13/2707Z TNM08/2722Z BECMG 2703/2705 16005MPS BECMG 2711/2713 VRB02MPS=
- 7 hours ago -

TAF ZMUB 262000Z 2621/2706 VRB02MPS CAVOK=
- 10 hours ago -

TAF ZMUB 261630Z 2618/2724 VRB02MPS CAVOK TNM10/2622Z TX13/2707Z BECMG 2703/2705 16005MPS BECMG 2711/2713 VRB02MPS=
- 13 hours ago -

TAF ZMUB 261040Z 2612/2718 VRB02MPS CAVOK TNM10/2622Z TX12/2707Z=
- 19 hours ago -

TAF ZMUB 260440Z 2606/2712 VRB02MPS 9999 FEW033 TX09/2606Z TNM10/2622Z=
- 1 day ago -

TAF ZMUB 252240Z 2600/2706 VRB02MPS 9999 SCT100 TX09/2606Z TNM10/2622Z=
- 1 day ago -